| time (UTC) | temp F | wind direction | speed knots | gust knots | rain 1hr in | rain 24hr in | rain mn in | humidity % | barometer mb |
| 20260906161411 | 62 | 215 | 1.7 | 2.6 | 0.00 | 0.00 | 0.00 | 50 | 1021.9 |
| 20260906155410 | 59 | 209 | 0.0 | 0.9 | 0.00 | 0.00 | 0.00 | 53 | 1022.0 |
| 20260906154509 | 58 | 225 | 0.0 | 0.0 | 0.00 | 0.00 | 0.00 | 56 | 1022.0 |
| 20260906153512 | 57 | 157 | 0.9 | 1.7 | 0.00 | 0.00 | 0.00 | 57 | 1021.9 |
| 20260906152511 | 56 | 247 | 0.0 | 0.0 | 0.00 | 0.00 | 0.00 | 57 | 1022.0 |
| 20260906151508 | 56 | 180 | 0.0 | 0.0 | 0.00 | 0.00 | 0.00 | 56 | 1021.8 |
| 20260906144626 | 53 | 180 | 0.0 | 0.0 | 0.00 | 0.00 | 0.00 | 58 | 1021.6 |
| 20260906143709 | 52 | 180 | 0.0 | 0.9 | 0.00 | 0.00 | 0.00 | 58 | 1021.6 |
| 20260906142808 | 52 | 157 | 0.0 | 0.0 | 0.00 | 0.00 | 0.00 | 59 | 1021.4 |
| 20260906141811 | 51 | 180 | 0.0 | 0.9 | 0.00 | 0.00 | 0.00 | 61 | 1021.2 |
| 20260906140908 | 51 | 204 | 0.0 | 0.0 | 0.00 | 0.00 | 0.00 | 61 | 1021.3 |
| 20260906135910 | 51 | 202 | 0.0 | 0.0 | 0.00 | 0.00 | 0.00 | 61 | 1021.2 |
| 20260906134911 | 51 | 180 | 0.0 | 0.0 | 0.00 | 0.00 | 0.00 | 60 | 1021.1 |
| 20260906134009 | 50 | 180 | 0.9 | 2.6 | 0.00 | 0.00 | 0.00 | 61 | 1020.9 |
| 20260906133010 | 50 | 157 | 0.0 | 0.0 | 0.00 | 0.00 | 0.00 | 61 | 1020.9 |
| 20260906132010 | 49 | 157 | 0.0 | 0.0 | 0.00 | 0.00 | 0.00 | 62 | 1020.9 |
| 20260906131008 | 49 | 180 | 0.0 | 0.0 | 0.00 | 0.00 | 0.00 | 61 | 1020.9 |
| 20260906125010 | 49 | 180 | 0.0 | 0.0 | 0.00 | 0.00 | 0.00 | 61 | 1021.0 |
| 20260906123110 | 49 | 180 | 0.0 | 0.0 | 0.00 | 0.00 | 0.00 | 62 | 1021.2 |
| 20260906122111 | 49 | 180 | 0.0 | 0.0 | 0.00 | 0.00 | 0.00 | 62 | 1021.3 |
| 20260906121108 | 50 | 180 | 0.0 | 0.0 | 0.00 | 0.00 | 0.00 | 62 | 1021.2 |
| 20260906120110 | 50 | 180 | 0.0 | 0.0 | 0.00 | 0.00 | 0.00 | 60 | 1021.2 |
| 20260906115208 | 50 | 180 | 0.0 | 0.0 | 0.00 | 0.00 | 0.00 | 61 | 1021.2 |
| 20260906114209 | 50 | 180 | 0.0 | 0.0 | 0.00 | 0.00 | 0.00 | 62 | 1021.1 |
| 20260906113308 | 50 | 180 | 0.0 | 0.0 | 0.00 | 0.00 | 0.00 | 62 | 1021.2 |
| 20260906112310 | 51 | 180 | 0.0 | 0.0 | 0.00 | 0.00 | 0.00 | 62 | 1021.2 |
| 20260906110408 | 51 | 180 | 0.0 | 0.0 | 0.00 | 0.00 | 0.00 | 63 | 1021.1 |
| 20260906105409 | 51 | 180 | 0.0 | 0.0 | 0.00 | 0.00 | 0.00 | 64 | 1021.1 |
| 20260906103511 | 51 | 180 | 0.0 | 0.0 | 0.00 | 0.00 | 0.00 | 62 | 1021.0 |
| 20260906102509 | 52 | 180 | 0.0 | 0.0 | 0.00 | 0.00 | 0.00 | 61 | 1021.0 |
| 20260906101512 | 53 | 180 | 0.0 | 0.0 | 0.00 | 0.00 | 0.00 | 60 | 1021.0 |
| 20260906100510 | 54 | 180 | 0.0 | 0.0 | 0.00 | 0.00 | 0.00 | 57 | 1021.2 |
| 20260906095509 | 55 | 180 | 0.0 | 0.0 | 0.00 | 0.00 | 0.00 | 56 | 1021.2 |
| 20260906094510 | 55 | 189 | 0.0 | 0.9 | 0.00 | 0.00 | 0.00 | 56 | 1021.2 |
| 20260906093608 | 55 | 227 | 0.9 | 1.7 | 0.00 | 0.00 | 0.00 | 56 | 1021.3 |
| 20260906092612 | 55 | 180 | 1.7 | 2.6 | 0.00 | 0.00 | 0.00 | 56 | 1021.2 |
| 20260906091609 | 56 | 180 | 1.7 | 2.6 | 0.00 | 0.00 | 0.00 | 55 | 1021.3 |
| 20260906090609 | 56 | 180 | 0.0 | 1.7 | 0.00 | 0.00 | 0.00 | 55 | 1021.3 |
| 20260906085708 | 56 | 173 | 0.9 | 1.7 | 0.00 | 0.00 | 0.00 | 54 | 1021.3 |
| 20260906083711 | 56 | 176 | 2.6 | 4.3 | 0.00 | 0.00 | 0.00 | 53 | 1021.4 |
| 20260906083609 | 56 | 185 | 2.6 | 5.2 | 0.00 | 0.00 | 0.00 | 52 | 1021.4 |
| 20260906082611 | 56 | 188 | 2.6 | 4.3 | 0.00 | 0.00 | 0.00 | 53 | 1021.3 |
| 20260906081608 | 56 | 224 | 1.7 | 2.6 | 0.00 | 0.00 | 0.00 | 53 | 1021.3 |
| 20260906080610 | 56 | 174 | 2.6 | 3.5 | 0.00 | 0.00 | 0.00 | 53 | 1021.4 |
| 20260906074708 | 56 | 208 | 1.7 | 2.6 | 0.00 | 0.00 | 0.00 | 53 | 1021.3 |
| 20260906073711 | 56 | 189 | 2.6 | 4.3 | 0.00 | 0.00 | 0.00 | 54 | 1021.3 |
| 20260906071711 | 56 | 168 | 2.6 | 3.5 | 0.00 | 0.00 | 0.00 | 54 | 1021.3 |
| 20260906065715 | 56 | 170 | 3.5 | 4.3 | 0.00 | 0.00 | 0.00 | 53 | 1021.3 |
| 20260906064613 | 56 | 220 | 0.0 | 0.9 | 0.00 | 0.00 | 0.00 | 54 | 1021.3 |
| 20260906063615 | 56 | 178 | 1.7 | 4.3 | 0.00 | 0.00 | 0.00 | 55 | 1021.3 |
| 20260906062714 | 56 | 170 | 1.7 | 3.5 | 0.00 | 0.00 | 0.00 | 54 | 1021.3 |
| 20260906060713 | 55 | 169 | 2.6 | 4.3 | 0.00 | 0.00 | 0.00 | 58 | 1021.1 |
| 20260906055713 | 55 | 206 | 0.0 | 2.6 | 0.00 | 0.00 | 0.00 | 59 | 1021.2 |
| 20260906054714 | 54 | 222 | 0.9 | 1.7 | 0.00 | 0.00 | 0.00 | 62 | 1021.2 |
| 20260906053812 | 53 | 157 | 0.9 | 1.7 | 0.00 | 0.00 | 0.00 | 65 | 1021.2 |
| 20260906051916 | 51 | 180 | 0.0 | 0.9 | 0.00 | 0.00 | 0.00 | 72 | 1021.4 |
| 20260906051013 | 51 | 225 | 0.0 | 0.0 | 0.00 | 0.00 | 0.00 | 72 | 1021.3 |
| 20260906050015 | 51 | 225 | 0.0 | 0.0 | 0.00 | 0.00 | 0.00 | 73 | 1021.3 |
| 20260906045112 | 51 | 189 | 0.0 | 0.0 | 0.00 | 0.00 | 0.00 | 74 | 1021.3 |
| 20260906044114 | 51 | 225 | 0.0 | 0.0 | 0.00 | 0.00 | 0.00 | 73 | 1021.4 |
| 20260906043114 | 51 | 202 | 0.0 | 0.0 | 0.00 | 0.00 | 0.00 | 73 | 1021.4 |
| 20260906042114 | 51 | 202 | 0.0 | 0.0 | 0.00 | 0.00 | 0.00 | 73 | 1021.4 |
| 20260906041212 | 52 | 202 | 0.0 | 0.0 | 0.00 | 0.00 | 0.00 | 72 | 1021.4 |
| 20260906040230 | 52 | 202 | 0.0 | 0.0 | 0.00 | 0.00 | 0.00 | 73 | 1021.4 |
| 20260906034213 | 53 | 202 | 0.0 | 0.0 | 0.00 | 0.00 | 0.00 | 69 | 1021.4 |
| 20260906032212 | 54 | 202 | 0.0 | 0.0 | 0.00 | 0.00 | 0.00 | 69 | 1021.2 |
| 20260906031213 | 54 | 202 | 0.0 | 0.0 | 0.00 | 0.00 | 0.00 | 67 | 1021.3 |
| 20260906030215 | 55 | 202 | 0.0 | 0.0 | 0.00 | 0.00 | 0.00 | 65 | 1021.2 |
| 20260906025214 | 55 | 202 | 0.0 | 0.0 | 0.00 | 0.00 | 0.00 | 64 | 1021.2 |
| 20260906024313 | 56 | 202 | 0.0 | 0.0 | 0.00 | 0.00 | 0.00 | 61 | 1021.2 |
| 20260906023314 | 57 | 202 | 0.0 | 0.0 | 0.00 | 0.00 | 0.00 | 60 | 1021.3 |
| 20260906022315 | 58 | 202 | 0.0 | 0.0 | 0.00 | 0.00 | 0.00 | 59 | 1021.3 |
| 20260906021313 | 58 | 202 | 0.0 | 0.0 | 0.00 | 0.00 | 0.00 | 59 | 1021.4 |
| 20260906020314 | 59 | 202 | 0.0 | 0.0 | 0.00 | 0.00 | 0.00 | 58 | 1021.4 |
| 20260906015316 | 59 | 225 | 0.0 | 0.0 | 0.00 | 0.00 | 0.00 | 58 | 1021.3 |
| 20260906014313 | 60 | 202 | 0.0 | 0.0 | 0.00 | 0.00 | 0.00 | 57 | 1021.3 |
| 20260906012315 | 60 | 203 | 0.0 | 0.9 | 0.00 | 0.00 | 0.00 | 55 | 1021.3 |
| 20260906011315 | 61 | 225 | 0.0 | 2.6 | 0.00 | 0.00 | 0.00 | 55 | 1021.3 |
| 20260906010313 | 61 | 225 | 0.9 | 2.6 | 0.00 | 0.00 | 0.00 | 53 | 1021.3 |
| 20260906005412 | 61 | 187 | 0.0 | 0.9 | 0.00 | 0.00 | 0.00 | 54 | 1021.2 |
| 20260906003415 | 62 | 235 | 1.7 | 3.5 | 0.00 | 0.00 | 0.00 | 53 | 1021.5 |
| 20260906002414 | 63 | 245 | 0.9 | 1.7 | 0.00 | 0.00 | 0.00 | 52 | 1021.3 |
| 20260906000412 | 63 | 215 | 1.7 | 5.2 | 0.00 | 0.00 | 0.00 | 52 | 1021.2 |
| 20260905235512 | 63 | 206 | 2.6 | 6.1 | 0.00 | 0.00 | 0.00 | 51 | 1021.1 |
| 20260905234513 | 63 | 194 | 0.0 | 1.7 | 0.00 | 0.00 | 0.00 | 50 | 1021.1 |
| 20260905233513 | 63 | 203 | 1.7 | 3.5 | 0.00 | 0.00 | 0.00 | 52 | 1021.2 |
| 20260905232513 | 63 | 225 | 0.9 | 2.6 | 0.00 | 0.00 | 0.00 | 50 | 1021.2 |
| 20260905231612 | 63 | 178 | 1.7 | 5.2 | 0.00 | 0.00 | 0.00 | 51 | 1021.3 |
| 20260905225615 | 63 | 180 | 2.6 | 4.3 | 0.00 | 0.00 | 0.00 | 50 | 1021.4 |
| 20260905224613 | 64 | 225 | 0.9 | 2.6 | 0.00 | 0.00 | 0.00 | 52 | 1021.6 |
| 20260905223612 | 64 | 221 | 1.7 | 3.5 | 0.00 | 0.00 | 0.00 | 52 | 1021.5 |
| 20260905222614 | 64 | 174 | 4.3 | 5.2 | 0.00 | 0.00 | 0.00 | 51 | 1021.5 |
| 20260905221614 | 64 | 210 | 3.5 | 6.1 | 0.00 | 0.00 | 0.00 | 52 | 1021.5 |
| 20260905220614 | 64 | 210 | 0.9 | 1.7 | 0.00 | 0.00 | 0.00 | 51 | 1021.6 |
| 20260905215612 | 64 | 177 | 3.5 | 6.1 | 0.00 | 0.00 | 0.00 | 52 | 1021.5 |
| 20260905214613 | 64 | 156 | 2.6 | 6.1 | 0.00 | 0.00 | 0.00 | 53 | 1021.5 |
| 20260905213616 | 64 | 183 | 1.7 | 5.2 | 0.00 | 0.00 | 0.00 | 52 | 1021.6 |
| 20260905212713 | 64 | 240 | 0.0 | 0.9 | 0.00 | 0.00 | 0.00 | 52 | 1021.6 |
| 20260905211813 | 64 | 198 | 0.0 | 2.6 | 0.00 | 0.00 | 0.00 | 51 | 1021.6 |
| 20260905210814 | 64 | 224 | 2.6 | 3.5 | 0.00 | 0.00 | 0.00 | 53 | 1021.7 |
| 20260905205813 | 63 | 183 | 1.7 | 3.5 | 0.00 | 0.00 | 0.00 | 55 | 1021.6 |
| 20260905204913 | 62 | 233 | 0.0 | 2.6 | 0.00 | 0.00 | 0.00 | 54 | 1021.6 |
| 20260905203915 | 62 | 203 | 0.0 | 2.6 | 0.00 | 0.00 | 0.00 | 55 | 1021.6 |
| 20260905202915 | 62 | 225 | 0.0 | 1.7 | 0.00 | 0.00 | 0.00 | 56 | 1021.6 |
| 20260905201912 | 62 | 234 | 0.0 | 1.7 | 0.00 | 0.00 | 0.00 | 56 | 1021.7 |
| 20260905201012 | 62 | 189 | 0.9 | 2.6 | 0.00 | 0.00 | 0.00 | 56 | 1021.7 |
| 20260905195113 | 61 | 202 | 0.9 | 3.5 | 0.00 | 0.00 | 0.00 | 58 | 1021.8 |
| 20260905193114 | 61 | 225 | 1.7 | 2.6 | 0.00 | 0.00 | 0.00 | 58 | 1021.9 |
| 20260905192130 | 62 | 205 | 0.9 | 1.7 | 0.00 | 0.00 | 0.00 | 57 | 1021.8 |
| 20260905190214 | 63 | 220 | 0.9 | 3.5 | 0.00 | 0.00 | 0.00 | 53 | 1021.9 |
| 20260905185212 | 63 | 214 | 1.7 | 4.3 | 0.00 | 0.00 | 0.00 | 53 | 1021.8 |
| 20260905184312 | 62 | 193 | 2.6 | 4.3 | 0.00 | 0.00 | 0.00 | 56 | 1021.8 |
| 20260905182313 | 61 | 226 | 1.7 | 3.5 | 0.00 | 0.00 | 0.00 | 56 | 1021.9 |
| 20260905181314 | 61 | 205 | 1.7 | 3.5 | 0.00 | 0.00 | 0.00 | 57 | 1021.9 |
| 20260905180312 | 61 | 237 | 2.6 | 4.3 | 0.00 | 0.00 | 0.00 | 56 | 1021.8 |
| 20260905175316 | 60 | 159 | 1.7 | 5.2 | 0.00 | 0.00 | 0.00 | 58 | 1021.5 |
| 20260905173413 | 59 | 217 | 0.9 | 1.7 | 0.00 | 0.00 | 0.00 | 61 | 1021.6 |
| 20260905172413 | 58 | 221 | 0.0 | 0.9 | 0.00 | 0.00 | 0.00 | 63 | 1021.6 |
| 20260905171413 | 58 | 199 | 2.6 | 4.3 | 0.00 | 0.00 | 0.00 | 62 | 1021.6 |
| 20260905170512 | 58 | 190 | 0.9 | 1.7 | 0.00 | 0.00 | 0.00 | 64 | 1021.5 |
| 20260905164515 | 58 | 155 | 2.6 | 4.3 | 0.00 | 0.00 | 0.00 | 64 | 1021.4 |
| 20260905162513 | 57 | 157 | 0.0 | 0.9 | 0.00 | 0.00 | 0.00 | 66 | 1021.5 |